EET,Max TemperatureF,Mean TemperatureF,Min TemperatureF,Max Dew PointF,MeanDew PointF,Min DewpointF,Max Humidity, Mean Humidity, Min Humidity, Max Sea Level PressureIn, Mean Sea Level PressureIn, Min Sea Level PressureIn, Max VisibilityMiles, Mean VisibilityMiles, Min VisibilityMiles, Max Wind SpeedMPH, Mean Wind SpeedMPH, Max Gust SpeedMPH,PrecipitationIn, CloudCover, Events, WindDirDegrees
2011-11-1,82,72,62,45,40,37,45,31,21,30.01,29.96,29.92,,,,12,9,,0.00,,,352
2011-11-2,84,72,59,43,39,34,48,33,19,30.01,29.94,29.89,,,,9,8,,0.00,,,360
2011-11-3,89,76,64,45,41,37,42,30,21,29.98,29.90,29.83,,,,8,7,,0.00,,,356
2011-11-4,93,82,71,45,41,39,34,24,15,29.95,29.90,29.86,,,,12,7,,0.00,,,3
2011-11-5,84,76,68,50,46,41,49,36,27,30.09,30.03,29.95,,,,12,9,,0.00,,,357
2011-11-6,80,70,59,43,37,27,48,34,15,30.15,30.07,30.04,,,,12,6,,0.00,,,357
2011-11-7,80,68,57,48,42,36,48,40,30,30.12,30.07,30.01,,,,9,5,,0.00,,,355
2011-11-8,84,76,69,52,48,46,43,36,29,30.12,30.02,29.95,,,,13,9,,0.00,,,356
2011-11-9,84,73,62,48,44,37,39,33,25,30.04,29.96,29.89,,,,12,9,,0.00,,,5
2011-11-10,86,72,59,45,41,36,52,34,22,29.95,29.90,29.86,,,,9,7,,0.00,,,2
2011-11-11,87,74,60,39,34,30,34,24,17,30.01,29.95,29.89,,,,8,6,,0.00,,,352
2011-11-12,86,73,60,37,32,25,34,24,13,30.01,29.97,29.92,,,,9,6,,0.00,,,348
2011-11-13,86,73,60,39,35,30,35,26,15,30.01,29.96,29.92,,,,10,7,,0.00,,,357
2011-11-14,82,70,59,48,44,39,52,39,26,30.01,29.96,29.92,,,,9,7,,0.00,,,357
2011-11-15,78,69,60,50,45,37,56,41,30,30.06,30.01,29.98,,,,10,6,,0.00,,,5
2011-11-16,73,66,57,39,35,32,42,32,23,30.15,30.09,30.04,,,,13,9,,0.00,,,358
2011-11-17,75,63,51,39,36,32,50,37,25,30.12,30.06,30.01,,,,12,7,,0.00,,,360
2011-11-18,78,66,55,41,38,34,55,37,21,30.06,30.02,29.95,,,,13,8,,0.00,,,358
2011-11-19,73,64,55,46,42,37,55,45,29,30.09,30.04,30.01,,,,14,8,,0.00,,,349
2011-11-20,71,63,55,45,39,34,63,43,27,30.12,30.07,30.01,,,,13,8,,0.00,,,350
2011-11-21,71,62,53,43,41,37,58,41,31,30.12,30.09,30.04,,,,12,8,,0.00,,,355
2011-11-22,73,65,57,45,40,34,59,38,27,30.15,30.10,30.06,,,,9,7,,0.00,,,360
2011-11-23,77,67,57,41,38,32,51,32,26,30.15,30.07,30.01,,,,10,8,,0.00,,,357
2011-11-24,78,66,55,45,36,32,41,32,22,30.12,30.06,30.01,,,,12,7,,0.00,,,4
2011-11-25,77,68,59,50,43,32,59,42,29,30.12,30.06,30.01,,,,16,10,,0.00,,,345
2011-11-26,75,65,55,48,44,41,77,47,31,30.12,30.06,30.01,,,,13,8,,0.00,,,353
2011-11-27,73,63,53,45,42,37,72,50,29,30.15,30.08,30.04,,,,13,10,,0.00,,,351
2011-11-28,69,63,57,48,46,43,67,52,40,30.12,30.08,30.04,6,6,6,14,8,,0.00,2,,346
2011-11-29,73,63,53,45,40,34,63,47,29,30.21,30.12,29.89,,,,13,3,,0.00,,,353
2011-11-30,77,66,55,43,38,34,44,36,26,30.12,30.07,30.04,,,,7,3,,0.00,,,352